Lexington Weather

Lexington, Massachusetts, USA

40°F
3/30/2020 9:46am 
  • Lexington Conditions: Mist, Overcast
  • Temperature: 40.3°F / 4.6°CWarmer 0.9°F than last hour.
  • Dew Point: 39.6°FIncreased 0.9°Fsince last hour.
  • Relative Humidity: 97
  • Wind: Wind from NNE NNE 2 mph, 10-min avg: 3 mph, gust: 9 mph
  • Barometer: 29.98 inRising 0.02  inHg/hr Rising Slowly
  • Visibility: 2 miles
  • Rain Today: 0.02 in
  •   

Regional Weather Roundup
for Boston / Norton, MA

        
000
ASUS41 KBOX 300404
RWRBOX

REGIONAL WEATHER ROUNDUP
NATIONAL WEATHER SERVICE BOSTON/NORTON MA
1200 AM EDT MON MAR 30 2020

NOTE:  "FAIR" INDICATES FEW OR NO CLOUDS BELOW 12,000 FEET WITH NO 
SIGNIFICANT WEATHER AND/OR OBSTRUCTIONS TO VISIBILITY.

MAZALL-300500-
EASTERN MASSACHUSETTS
  
CITY           SKY/WX    TMP DP  RH WIND       PRES   REMARKS
BOSTON         LGT RAIN  39  38  96 NE21G29   29.93F FOG     WCI  29  
BEVERLY        CLOUDY    40  37  89 NE15G22   29.97F FOG     WCI  32  
LAWRENCE       CLOUDY    39  37  92 NE14      29.99F WCI  31          
BEDFORD        CLOUDY    40  37  89 NE16      29.95F WCI  31          
BLUE HILL        N/A     37  37 100 NE21G31   29.89F WCI  26          
NORWOOD        CLOUDY    41  38  89 NE10G22   29.94F                  
MARSHFIELD     LGT RAIN  43  43 100 N10G21    29.96F                  
PLYMOUTH       LGT RAIN  41  40  96 N18         N/A  FOG              
TAUNTON        LGT RAIN  41  39  93 NE12G18   29.90F FOG              
NEW BEDFORD    LGT RAIN  40  40 100 N15G22    29.88F FOG     WCI  32  
$$

MAZALL-300500-
CAPE COD AND THE ISLANDS
  
CITY           SKY/WX    TMP DP  RH WIND       PRES   REMARKS
FALMOUTH       LGT RAIN  45  45 100 N14       29.89R                  
HYANNIS        LGT RAIN  46  44  93 NW13      29.88R FOG              
CHATHAM        LGT RAIN  46  44  93 N8        29.87R FOG              
PROVINCETOWN   LGT RAIN  42  41  96 NE16      29.95R FOG              
NANTUCKET      FOG       47  47 100 SE12      29.80F VSB 3/4          
MARTHAS VNYRD  LGT RAIN  45  44  97 N14       29.85S FOG              
$$
 
MAZALL-300500-
CENTRAL AND WESTERN MASSACHUSETTS
  
CITY           SKY/WX    TMP DP  RH WIND       PRES   REMARKS
WORCESTER      FOG       36  34  92 NE13G22   29.94F VSB 1   WCI  27  
FITCHBURG      CLOUDY    38  35  89 VRB3      29.99F                  
ORANGE         CLOUDY    39  35  86 NW7       29.99R                  
SPRINGFIELD    CLOUDY    39  38  96 N9        29.96S                  
WESTFIELD      CLOUDY    39  36  89 N12       29.96S WCI  32          
NORTH ADAMS    CLOUDY    39  34  82 E17       29.95F WCI  30          
PITTSFIELD     CLOUDY    37  34  89 NE10      29.93S WCI  30          
$$
 
RIZALL-300500-
RHODE ISLAND
  
CITY           SKY/WX    TMP DP  RH WIND       PRES   REMARKS
PROVIDENCE     DRIZZLE   42  40  92 N17G24    29.91F                  
NEWPORT        CLOUDY    43  40  89 N17G26    29.86F FOG              
BLOCK ISLAND   LGT RAIN  41  41 100 N14G20    29.87R FOG              
SMITHFIELD     CLOUDY    39  39 100 NE18G25   29.92F WCI  30          
WESTERLY       CLOUDY    45  40  82 N9        29.89R                  
$$
 
CTZALL-300500-
CONNECTICUT
  
CITY           SKY/WX    TMP DP  RH WIND       PRES   REMARKS
BRADLEY INTL   CLOUDY    40  38  93 N12       29.95S                  
HARTFORD       CLOUDY    42  38  85 N12G18    29.95R                  
BRIDGEPORT     CLOUDY    46  42  86 NE16      29.88S                  
DANBURY        CLOUDY    43  41  93 NE10      29.90S                  
GROTON         CLOUDY    41  41 100 N14       29.87S                  
NEW HAVEN      CLOUDY    44  42  93 N18       29.89S                  
CHESTER        CLOUDY    41  41 100 N14       29.88F FOG              
MERIDEN        CLOUDY    41  38  89 N10G23    29.92S                  
WILLIMANTIC    CLOUDY    41  38  89 N9        29.93R                  
OXFORD         CLOUDY    40  39  97 N10G23    29.90R                  
$$

MEZ002-015-021-024-NHZ003-005-008-011-012-014-VTZ005-008-300500-
NORTHERN NEW ENGLAND
  
CITY           SKY/WX    TMP DP  RH WIND       PRES   REMARKS
PORTLAND ME    LGT RAIN  37  33  85 NE8       30.11F WCI  31          
BANGOR ME      CLOUDY    34  32  92 NE7       30.14F WCI  28          
CONCORD NH     CLOUDY    35  33  92 NE8       30.03F WCI  29          
MANCHESTER NH  CLOUDY    39  36  89 NE9       30.00F                  
NASHUA NH      CLOUDY    38  38 100 N8        30.01F                  
PORTSMOUTH NH  CLOUDY    38  37  95 NE10      30.02  WCI  31          
JAFFREY NH     CLOUDY    36  35  96 VRB3      29.97F                  
KEENE NH       CLOUDY    37  34  89 NE3       30.00S                  
BURLINGTON VT  LGT RAIN  40  36  86 S7        29.91S                  
MT. WASHINGTON FRZ RAIN  25  25 100 S35G40      N/A  VSB 0   WCI   7  
$$

NYZ052-076-300500-
EASTERN NEW YORK
  
CITY           SKY/WX    TMP DP  RH WIND       PRES   REMARKS
ALBANY         CLOUDY    46  37  71 SE6       29.92F                  
NEW YORK CITY  DRIZZLE   47  44  90 NE10      29.88R FOG              
$$
 
ANZALL-300500-
MARINE OBSERVATIONS
  
STATION/POSITION TIME  TEMP    WIND        PRES    VSBY  WAVE
                       AIR SEA DIR/SP/G                  HT/PER
                 (UTC) (F)     (DEG/KT/KT) (MB)    (MI)  (FT/S)
BOSTON BUOY      0350   42 43   30/ 17/ 23 1015.1R         6/ 7
BUZZARDS BAY     0300           10/ 18/ 20 1012.0S
NANTUCKET SOUND  0340                        N/A           3/ 5
MASS BAY-STELLWA 0304   41 42   90/ 19/ 23   N/A    1 7/8  7/ 8
ISLE OF SHOALS   0300   41      10/ 13/ 16 1018.9R
S OF BLOCK IS    0330      44                N/A           8/ 8
$$

......................KEY.........................
  SKY/WX - SKY CONDITION/PRESENT WEATHER
  TMP    - TEMPERATURE IN FAHRENHEIT
  DWPT   - DEWPOINT IN FAHRENHEIT
  RH     - RELATIVE HUMIDITY IN PERCENT
  WIND   - DIRECTION AND SPEED IN MPH
  PRES   - MEAN SEA LEVEL PRESSURE IN INCHES OF HG
  WCI    - WIND CHILL INDEX
  VSB    - VISIBILITY IN MILES
  HX     - HEAT INDEX
  TC     - TEMPERATURE IN CELSIUS
  VRB    - VARIABLE WIND DIRECTION
  N/A    - NOT AVAILABLE
  
      

Other recent Regional Weather Roundups

Mon Mar 30, 9:04am

Mon Mar 30, 8:04am

Mon Mar 30, 7:04am

Mon Mar 30, 6:04am

Mon Mar 30, 5:04am

Mon Mar 30, 4:04am

Mon Mar 30, 3:05am

Mon Mar 30, 2:04am

Mon Mar 30, 1:04am

Sun Mar 29, 11:04pm

Sun Mar 29, 10:05pm

Sun Mar 29, 9:04pm

Sun Mar 29, 8:04pm

Sun Mar 29, 7:04pm

Sun Mar 29, 6:04pm

Sun Mar 29, 5:05pm

Sun Mar 29, 4:04pm

Sun Mar 29, 3:04pm

Sun Mar 29, 2:04pm

Sun Mar 29, 1:05pm

Sun Mar 29, 12:04pm

Sun Mar 29, 11:04am

Sun Mar 29, 10:04am

Sun Mar 29, 9:04am

Sun Mar 29, 8:04am

Sun Mar 29, 7:04am

Sun Mar 29, 6:04am

Sun Mar 29, 5:04am

Sun Mar 29, 4:04am

Sun Mar 29, 3:04am

Sun Mar 29, 2:04am

Sun Mar 29, 1:04am

Sun Mar 29, 12:04am

Sat Mar 28, 11:05pm

Sat Mar 28, 10:04pm

Sat Mar 28, 9:04pm

Sat Mar 28, 8:04pm

Sat Mar 28, 7:04pm

Sat Mar 28, 6:04pm

Sat Mar 28, 5:05pm

Sat Mar 28, 4:04pm

Sat Mar 28, 3:04pm

Sat Mar 28, 2:04pm

Sat Mar 28, 1:05pm

Sat Mar 28, 12:04pm

Sat Mar 28, 11:04am

Sat Mar 28, 10:04am

Sat Mar 28, 9:04am

Sat Mar 28, 8:04am

Sat Mar 28, 7:04am

Sat Mar 28, 6:04am

Sat Mar 28, 5:04am

Sat Mar 28, 4:04am

Sat Mar 28, 3:04am

Sat Mar 28, 2:04am

Sat Mar 28, 1:04am

Sat Mar 28, 12:04am

Fri Mar 27, 11:04pm

Fri Mar 27, 10:04pm

Fri Mar 27, 9:04pm

Fri Mar 27, 8:04pm

Fri Mar 27, 7:05pm

Fri Mar 27, 6:04pm

Fri Mar 27, 5:05pm

Fri Mar 27, 4:05pm

Fri Mar 27, 3:04pm

Fri Mar 27, 2:05pm

Fri Mar 27, 1:04pm

Fri Mar 27, 12:04pm

Fri Mar 27, 11:04am

Fri Mar 27, 10:04am

Meta data:

ID: 81973e89-c664-4ddf-aa7e-2c27ca2ac8f7
Link: https://api.weather.gov/products/81973e89-c664-4ddf-aa7e-2c27ca2ac8f7